EW8080 Weather Reports


Display with metric or nautical units.
time (UTC)temp
F
wind
direction
speed
MPH
gust
MPH
rain 1hr
in
rain 24hr
in
rain mn
in
humidity
%
barometer
mb
20260507140003 55 271 7.0 12.0 0.01 0.59 0.52 86 1008.4
20260507135003 54 309 4.0 10.0 0.01 0.59 0.52 87 1008.5
20260507134003 52 310 5.0 11.0 0.01 0.59 0.52 88 1008.3
20260507133004 52 326 9.0 12.0 0.01 0.59 0.52 87 1008.5
20260507132003 52 354 5.0 12.0 0.02 0.59 0.51 87 1008.4
20260507131003 52 332 5.0 9.0 0.03 0.59 0.51 91 1008.3
20260507130003 51 345 6.0 9.0 0.03 0.59 0.51 90 1008.5
20260507125003 51 359 5.0 12.0 0.04 0.59 0.51 91 1008.2
20260507124003 50 10 6.0 12.0 0.04 0.58 0.50 93 1008.4
20260507123003 50 320 6.0 12.0 0.04 0.58 0.50 94 1008.7
20260507122024 49 303 5.0 8.0 0.05 0.57 0.50 94 1008.6
20260507121003 49 326 6.0 12.0 0.05 0.56 0.48 94 1008.5
20260507120004 49 5 3.0 12.0 0.05 0.55 0.48 94 1008.4
20260507115003 49 4 6.0 12.0 0.05 0.55 0.47 93 1008.5
20260507114024 49 17 4.0 13.0 0.05 0.55 0.47 93 1008.3
20260507113005 49 66 4.0 18.0 0.05 0.54 0.46 92 1008.5
20260507112003 49 331 9.0 23.0 0.04 0.52 0.44 92 1008.8
20260507111003 50 336 10.0 23.0 0.03 0.51 0.43 92 1008.5
20260507110003 50 6 13.0 19.0 0.04 0.50 0.42 93 1007.3
20260507105003 50 360 11.0 14.0 0.04 0.50 0.42 96 1007.4
20260507104003 51 286 5.0 13.0 0.04 0.50 0.42 96 1007.7
20260507103003 51 328 7.0 13.0 0.04 0.48 0.41 96 1007.7
20260507102003 51 345 7.0 18.0 0.06 0.48 0.41 96 1007.2
20260507101003 51 357 7.0 23.0 0.07 0.48 0.40 95 1007.5
20260507100003 51 353 12.0 23.0 0.08 0.46 0.39 93 1007.0
20260507095003 52 326 18.0 23.0 0.09 0.46 0.38 94 1007.3
20260507094004 52 352 9.0 19.0 0.10 0.45 0.37 95 1006.9
20260507093024 53 6 6.0 19.0 0.12 0.45 0.37 95 1007.0
20260507092003 53 346 8.0 15.0 0.15 0.42 0.35 95 1007.4
20260507091003 53 19 7.0 15.0 0.26 0.41 0.33 96 1007.1
20260507090003 54 317 9.0 12.0 0.29 0.39 0.31 96 1007.1
20260507085003 54 297 5.0 15.0 0.27 0.36 0.28 97 1006.8
20260507084003 55 286 5.0 15.0 0.26 0.35 0.28 98 1006.7
20260507083024 55 330 8.0 13.0 0.24 0.33 0.25 98 1006.6
20260507082003 55 263 6.0 12.0 0.18 0.27 0.19 97 1007.2
20260507081003 55 255 4.0 10.0 0.06 0.15 0.07 96 1006.5
20260507080004 55 268 2.0 3.0 0.00 0.09 0.02 95 1005.9
20260507075003 55 189 2.0 3.0 0.00 0.09 0.01 95 1006.0
20260507074003 55 194 2.0 3.0 0.00 0.09 0.01 95 1005.9
20260507073003 55 186 1.0 5.0 0.00 0.09 0.01 96 1006.0
20260507072003 55 151 1.0 6.0 0.00 0.09 0.01 96 1006.2
20260507071003 55 172 3.0 6.0 0.00 0.09 0.01 96 1006.1
20260507070004 55 173 4.0 5.0 0.00 0.09 0.01 96 1006.1
20260507065003 55 191 3.0 5.0 0.00 0.09 0.01 96 1006.3
20260507064024 55 206 2.0 5.0 0.00 0.09 0.01 96 1006.2
20260507063003 55 188 1.0 9.0 0.00 0.09 0.01 96 1006.3
20260507062003 55 138 2.0 9.0 0.00 0.09 0.01 96 1006.2
20260507061003 55 210 3.0 6.0 0.00 0.09 0.01 96 1006.7
20260507060003 55 191 2.0 6.0 0.01 0.09 0.01 96 1006.5
20260507055003 55 196 3.0 6.0 0.01 0.09 0.01 96 1006.8
20260507054003 55 206 3.0 7.0 0.01 0.09 0.01 96 1006.9
20260507053024 55 201 4.0 7.0 0.01 0.09 0.01 96 1007.0
20260507052003 55 194 4.0 7.0 0.01 0.09 0.01 96 1007.3
20260507051004 55 197 3.0 10.0 0.00 0.08 0.00 96 1007.3
20260507050003 55 214 5.0 10.0 0.00 0.08 0.00 96 1007.8
20260507045003 55 218 4.0 10.0 0.00 0.08 0.00 96 1007.4
20260507044003 55 224 5.0 9.0 0.00 0.08 0.00 96 1007.4
20260507043003 55 207 6.0 9.0 0.00 0.08 0.00 96 1007.3
20260507042003 55 205 4.0 13.0 0.00 0.08 0.00 96 1007.4
20260507041003 55 211 5.0 13.0 0.00 0.08 0.00 97 1007.4
20260507040004 55 219 7.0 13.0 0.00 0.08 0.00 97 1007.7
20260507035003 55 224 4.0 12.0 0.00 0.08 0.08 97 1007.9
20260507034004 55 222 6.0 14.0 0.00 0.08 0.08 97 1007.5
20260507033024 55 223 6.0 19.0 0.00 0.08 0.08 97 1007.9
20260507032003 55 240 9.0 19.0 0.00 0.08 0.08 97 1007.8
20260507031003 55 217 6.0 19.0 0.00 0.08 0.08 97 1007.5
20260507030003 55 213 9.0 19.0 0.00 0.08 0.08 97 1007.4
20260507025003 55 209 10.0 14.0 0.00 0.08 0.08 97 1007.5
20260507024003 55 218 8.0 17.0 0.00 0.08 0.08 97 1007.5
20260507023024 56 222 8.0 19.0 0.00 0.08 0.08 97 1007.7
20260507022003 56 213 10.0 19.0 0.00 0.08 0.08 97 1007.8
20260507021024 56 214 8.0 19.0 0.00 0.08 0.08 97 1007.9
20260507020003 56 219 10.0 19.0 0.00 0.08 0.08 97 1008.0
20260507015003 56 223 10.0 16.0 0.00 0.08 0.08 97 1008.3
20260507014003 56 221 8.0 19.0 0.00 0.08 0.08 97 1008.1
20260507013003 56 233 11.0 21.0 0.01 0.08 0.08 97 1008.5
20260507012003 56 231 11.0 21.0 0.01 0.08 0.08 97 1008.6
20260507011003 56 215 8.0 18.0 0.01 0.07 0.07 97 1008.5
20260507010004 56 226 10.0 23.0 0.01 0.07 0.07 97 1008.4
20260507005024 56 227 9.0 26.0 0.01 0.07 0.07 97 1008.4
20260507004003 56 231 11.0 26.0 0.02 0.07 0.07 97 1008.6
20260507003003 56 245 12.0 25.0 0.02 0.07 0.07 97 1008.4
20260507002003 56 231 9.0 19.0 0.02 0.07 0.07 97 1008.4
20260507001003 56 222 13.0 22.0 0.02 0.07 0.07 97 1008.5
20260507000003 56 231 14.0 25.0 0.03 0.07 0.07 97 1008.3
20260506235003 56 206 9.0 25.0 0.03 0.06 0.06 96 1008.4
20260506234003 56 207 12.0 21.0 0.04 0.06 0.06 96 1008.5
20260506233003 56 208 10.0 20.0 0.04 0.05 0.05 96 1008.3
20260506232003 56 218 11.0 26.0 0.04 0.05 0.05 96 1008.1
20260506231003 56 226 11.0 26.0 0.03 0.05 0.05 96 1008.1
20260506230003 56 198 13.0 27.0 0.03 0.04 0.04 95 1008.6
20260506225003 57 222 14.0 27.0 0.02 0.03 0.03 94 1008.6
20260506224003 57 224 11.0 24.0 0.02 0.02 0.02 93 1008.5
20260506223003 57 222 11.0 24.0 0.01 0.02 0.02 93 1008.6
20260506222003 57 227 12.0 25.0 0.01 0.02 0.02 91 1008.8
20260506221003 58 219 14.0 25.0 0.00 0.01 0.01 90 1008.9
20260506220003 59 226 11.0 21.0 0.00 0.01 0.01 88 1008.8
20260506215003 59 212 12.0 24.0 0.00 0.01 0.01 86 1008.9
20260506214024 59 219 12.0 24.0 0.01 0.01 0.01 85 1009.0
20260506213003 60 197 11.0 20.0 0.01 0.01 0.01 86 1009.1
20260506212003 60 215 10.0 20.0 0.01 0.01 0.01 85 1009.1
20260506211003 60 211 15.0 20.0 0.01 0.01 0.01 85 1009.2
20260506210003 60 201 14.0 21.0 0.00 0.00 0.00 83 1009.4
20260506205024 60 232 10.0 21.0 0.00 0.00 0.00 83 1009.3
20260506204003 61 243 11.0 26.0 0.00 0.00 0.00 82 1009.3
20260506203003 61 205 8.0 26.0 0.00 0.00 0.00 83 1009.5
20260506202003 61 226 12.0 21.0 0.00 0.00 0.00 81 1009.5
20260506201024 61 209 11.0 21.0 0.00 0.00 0.00 79 1009.4
20260506200003 61 215 9.0 20.0 0.00 0.00 0.00 80 1009.9
20260506195003 62 232 9.0 20.0 0.00 0.00 0.00 78 1009.9
20260506194003 62 235 10.0 20.0 0.00 0.00 0.00 77 1010.1
20260506193003 62 224 10.0 19.0 0.00 0.00 0.00 77 1010.2
20260506192003 62 205 9.0 19.0 0.00 0.00 0.00 78 1010.2
20260506191003 63 212 11.0 23.0 0.00 0.00 0.00 76 1010.2
20260506190024 63 228 9.0 28.0 0.00 0.00 0.00 76 1010.3
20260506185024 64 219 14.0 28.0 0.00 0.00 0.00 75 1010.2
20260506184003 64 219 11.0 27.0 0.00 0.00 0.00 75 1010.5
20260506183003 64 214 11.0 27.0 0.00 0.00 0.00 74 1010.6
20260506182003 64 222 8.0 27.0 0.00 0.00 0.00 75 1010.6
20260506181003 64 221 14.0 25.0 0.00 0.00 0.00 74 1011.0
20260506180004 65 225 14.0 34.0 0.00 0.00 0.00 73 1011.1
20260506175003 66 229 14.0 34.0 0.00 0.00 0.00 72 1011.3
20260506174003 67 233 14.0 27.0 0.00 0.00 0.00 71 1011.3
20260506173004 66 213 14.0 27.0 0.00 0.00 0.00 71 1011.5
20260506172003 67 219 13.0 19.0 0.00 0.00 0.00 72 1011.5
20260506171003 67 229 12.0 26.0 0.00 0.00 0.00 74 1011.5
20260506170003 65 235 10.0 28.0 0.00 0.00 0.00 74 1011.9
20260506165003 64 220 11.0 28.0 0.00 0.00 0.00 75 1012.0
20260506164003 65 217 13.0 26.0 0.00 0.00 0.00 74 1012.0
20260506163003 66 216 14.0 26.0 0.00 0.00 0.00 71 1012.1
20260506162003 67 233 13.0 25.0 0.00 0.00 0.00 71 1012.4
20260506161002 68 220 12.0 25.0 0.00 0.00 0.00 69 1012.4
20260506160003 67 214 12.0 30.0 0.00 0.00 0.00 70 1012.4
20260506155003 67 211 11.0 30.0 0.00 0.00 0.00 71 1012.6
20260506154002 66 230 11.0 28.0 0.00 0.00 0.00 71 1012.6
20260506153002 67 201 15.0 30.0 0.00 0.00 0.00 72 1012.8
20260506152003 67 214 16.0 31.0 0.00 0.00 0.00 71 1012.9
20260506151003 68 229 16.0 31.0 0.00 0.00 0.00 70 1012.8
20260506150003 68 210 15.0 31.0 0.00 0.00 0.00 70 1012.7
20260506145003 66 219 12.0 27.0 0.00 0.00 0.00 73 1012.8
20260506144024 66 223 14.0 31.0 0.00 0.00 0.00 70 1012.6
20260506143003 66 215 12.0 31.0 0.00 0.00 0.00 72 1012.7
20260506142003 66 224 12.0 26.0 0.00 0.00 0.00 71 1012.6
20260506141003 68 222 14.0 26.0 0.00 0.00 0.00 69 1012.9